Weather History for Poughkeepsie, NY

Change the Weather History Date:

Monday, April 1, 2013

  Actual Average Record
Temperature  
Mean Temperature 47 °F 43 °F  
Max Temperature 60 °F 55 °F 76 °F (1978)
Min Temperature 33 °F 31 °F 14 °F (1964)
Degree Days  
Heating Degree Days 18 22  
Month to date heating degree days 18 22  
Since 1 July heating degree days 5007 5467  
Cooling Degree Days 0 0  
Month to date cooling degree days 0 0  
Year to date cooling degree days 0 0  
Moisture  
Dew Point 36 °F    
Average Humidity 65    
Maximum Humidity 100    
Minimum Humidity 29    
Precipitation  
Precipitation T in 0.12 in 2.18 in (1973)
Month to date precipitation T 0.12  
Year to date precipitation 5.14 9.43  
Sea Level Pressure  
Sea Level Pressure 29.68 in    
Wind  
Wind Speed 9 mph (WNW)    
Max Wind Speed 25 mph    
Max Gust Speed 36 mph    
Visibility 6 miles    
Events Rain    
T = Trace of Precipitation, MM = Missing Value Source: NWS Daily Summary

Daily Weather History Graph

Daily Weather History Graph

Search for Another Location

Airport:

Trip Planner

Search our weather history database for the weather conditions in past years. The results will help you decide how hot, cold, wet, or windy it might be!

Date:

Astronomy

Apr. 01, 2013 Rise Set
Actual Time 6:38 AM EDT 7:21 PM EDT
Civil Twilight 6:10 AM EDT 7:49 PM EDT
Nautical Twilight 5:36 AM EDT 8:22 PM EDT
Astronomical Twilight 5:02 AM EDT 8:56 PM EDT
Moon 12:30 AM EDT (4/1) 10:18 AM EDT (4/1)
Length of Visible Light 13h 39m
Length of Day
12h 43m
Waning Gibbous, 67% of the Moon is Illuminated
Apr 1
Waning Gibbous
Apr 3
Last Quarter
Apr 10
New
Apr 18
First Quarter
Apr 25
Full

Hourly Weather History & Observations

Time (EDT) Temp. Windchill Dew Point Humidity Pressure Visibility Wind Dir Wind Speed Gust Speed Precip Events Conditions
12:15 AM 44.6 °F 43.1 °F 42.8 °F 93% 29.68 in 4.0 mi North 3.5 mph - 0.01 in   Overcast
12:18 AM 44.6 °F - 42.8 °F 93% 29.68 in 3.0 mi Calm Calm - 0.01 in   Overcast
12:33 AM 44.6 °F 43.1 °F 42.8 °F 93% 29.67 in 3.0 mi North 3.5 mph - 0.01 in   Overcast
12:53 AM 43.0 °F 41.3 °F 42.1 °F 97% 29.66 in 4.0 mi North 3.5 mph - 0.01 in   Overcast
1:06 AM 42.8 °F - 42.8 °F 100% 29.67 in 5.0 mi Calm Calm - N/A   Overcast
1:14 AM 42.8 °F 41.1 °F 42.8 °F 100% 29.67 in 5.0 mi NNW 3.5 mph - N/A   Overcast
1:53 AM 43.0 °F 41.3 °F 42.1 °F 97% 29.65 in 5.0 mi NNW 3.5 mph - N/A   Overcast
2:32 AM 42.8 °F - 41.0 °F 93% 29.65 in 5.0 mi Calm Calm - N/A   Overcast
2:53 AM 43.0 °F - 42.1 °F 97% 29.64 in 4.0 mi Calm Calm - N/A   Overcast
3:21 AM 42.8 °F - 41.0 °F 93% 29.65 in 2.5 mi Calm Calm - N/A   Scattered Clouds
3:45 AM 42.8 °F - 41.0 °F 93% 29.66 in 2.5 mi Calm Calm - N/A   Mostly Cloudy
3:49 AM 42.8 °F - 41.0 °F 93% 29.66 in 3.0 mi Calm Calm - N/A   Mostly Cloudy
3:53 AM 41.0 °F - 41.0 °F 100% 29.65 in 3.0 mi Calm Calm - N/A   Mostly Cloudy
4:00 AM 42.8 °F - 41.0 °F 93% 29.66 in 2.5 mi Calm Calm - N/A   Overcast
4:10 AM 42.8 °F - 41.0 °F 93% 29.67 in 2.5 mi Calm Calm - N/A   Overcast
4:36 AM 42.8 °F - 41.0 °F 93% 29.66 in 3.0 mi Calm Calm - N/A   Overcast
4:53 AM 42.1 °F 40.2 °F 41.0 °F 96% 29.66 in 4.0 mi WSW 3.5 mph - N/A   Mostly Cloudy
5:28 AM 42.8 °F - 41.0 °F 93% 29.67 in 5.0 mi Calm Calm - N/A   Mostly Cloudy
5:53 AM 43.0 °F - 42.1 °F 97% 29.68 in 5.0 mi Calm Calm - N/A   Overcast
6:53 AM 42.1 °F - 39.9 °F 92% 29.66 in 4.0 mi Calm Calm - N/A   Clear
7:08 AM 42.8 °F - 39.2 °F 87% 29.67 in 2.5 mi Calm Calm - N/A   Clear
7:15 AM 42.8 °F - 39.2 °F 87% 29.67 in 6.0 mi Calm Calm - N/A   Clear
7:53 AM 43.0 °F 40.3 °F 42.1 °F 97% 29.67 in 6.0 mi SW 4.6 mph - N/A   Clear
8:53 AM 45.0 °F 41.8 °F 42.1 °F 90% 29.66 in 8.0 mi SW 5.8 mph - N/A   Clear
9:53 AM 48.0 °F - 42.1 °F 80% 29.64 in 10.0 mi SSW 5.8 mph - N/A   Clear
10:53 AM 51.1 °F - 43.0 °F 74% 29.62 in 10.0 mi SW 9.2 mph - N/A   Partly Cloudy
11:53 AM 55.9 °F - 42.1 °F 60% 29.60 in 10.0 mi SW 12.7 mph 19.6 mph N/A   Scattered Clouds
12:53 PM 57.0 °F - 39.9 °F 53% 29.59 in 10.0 mi SW 12.7 mph 25.3 mph 0.00 in Rain Light Rain
1:28 PM 55.4 °F - 37.4 °F 51% 29.61 in 10.0 mi WNW 18.4 mph 28.8 mph 0.00 in   Mostly Cloudy
1:53 PM 54.0 °F - 37.0 °F 53% 29.60 in 10.0 mi WNW 15.0 mph 21.9 mph 0.00 in   Overcast
3:53 PM 46.0 °F 39.3 °F 30.9 °F 56% 29.70 in 10.0 mi West 16.1 mph 23.0 mph 0.00 in   Overcast
4:53 PM 46.9 °F - 26.1 °F 44% 29.70 in 10.0 mi NW 17.3 mph 28.8 mph N/A   Mostly Cloudy
5:53 PM 48.9 °F - 23.0 °F 36% 29.70 in 10.0 mi WNW 13.8 mph 24.2 mph N/A   Partly Cloudy
6:53 PM 46.0 °F 39.6 °F 18.0 °F 33% 29.73 in 10.0 mi NW 15.0 mph 24.2 mph N/A   Clear
7:53 PM 42.1 °F 35.2 °F 12.9 °F 31% 29.78 in 10.0 mi NW 12.7 mph 27.6 mph N/A   Clear
8:53 PM 39.0 °F 31.4 °F 10.0 °F 30% 29.82 in 10.0 mi NW 12.7 mph 20.7 mph N/A   Clear
9:53 PM 37.9 °F 30.0 °F 12.0 °F 35% 29.85 in 10.0 mi WNW 12.7 mph 20.7 mph N/A   Clear
10:53 PM 36.0 °F 29.6 °F 14.0 °F 41% 29.88 in 10.0 mi WNW 8.1 mph 16.1 mph N/A   Clear
11:53 PM 35.1 °F 27.9 °F 15.1 °F 44% 29.89 in 10.0 mi WNW 9.2 mph - N/A   Clear